Time,TemperatureF,DewpointF,PressureIn,WindDirection,WindDirectionDegrees,WindSpeedMPH,WindSpeedGustMPH,Humidity,HourlyPrecipIn,Conditions,Clouds,dailyrainin,SoftwareType,DateUTC
2014-02-05 00:08:00,40.6,39.0,30.11,North,11,2.0,3.0,94,0.00,,,0.00,weatherlink.com 1.10,2014-02-05 06:08:00,
2014-02-05 00:24:00,39.8,38.0,30.12,NNE,14,3.0,4.0,94,0.00,,,0.00,weatherlink.com 1.10,2014-02-05 06:24:00,
2014-02-05 00:41:00,41.3,40.0,30.12,NNE,19,5.0,10.0,95,0.00,,,0.00,weatherlink.com 1.10,2014-02-05 06:41:00,
2014-02-05 00:57:00,42.0,41.0,30.13,NNE,17,8.0,11.0,95,0.00,,,0.00,weatherlink.com 1.10,2014-02-05 06:57:00,
2014-02-05 01:14:00,42.3,41.0,30.14,NNE,15,10.0,12.0,94,0.00,,,0.00,weatherlink.com 1.10,2014-02-05 07:14:00,
2014-02-05 01:30:00,42.4,41.0,30.14,NNE,15,11.0,12.0,94,0.00,,,0.00,weatherlink.com 1.10,2014-02-05 07:30:00,
2014-02-05 01:47:00,42.5,41.0,30.13,NNE,20,9.0,18.0,94,0.00,,,0.00,weatherlink.com 1.10,2014-02-05 07:47:00,
2014-02-05 02:03:00,42.7,41.0,30.14,NNE,31,11.0,18.0,93,0.00,,,0.00,weatherlink.com 1.10,2014-02-05 08:03:00,
2014-02-05 02:20:00,42.6,40.0,30.14,NNE,32,14.0,19.0,92,0.00,,,0.00,weatherlink.com 1.10,2014-02-05 08:20:00,
2014-02-05 02:36:00,42.1,40.0,30.15,NNE,21,8.0,15.0,92,0.00,,,0.00,weatherlink.com 1.10,2014-02-05 08:36:00,
2014-02-05 02:52:00,41.7,40.0,30.16,NNE,22,10.0,17.0,92,0.00,,,0.00,weatherlink.com 1.10,2014-02-05 08:52:00,
2014-02-05 03:08:00,41.2,38.0,30.17,NNE,15,11.0,17.0,90,0.00,,,0.00,weatherlink.com 1.10,2014-02-05 09:08:00,
2014-02-05 03:25:00,40.7,38.0,30.18,NNE,19,11.0,19.0,89,0.00,,,0.00,weatherlink.com 1.10,2014-02-05 09:25:00,
2014-02-05 03:41:00,40.1,36.0,30.18,NE,36,19.0,22.0,85,0.00,,,0.00,weatherlink.com 1.10,2014-02-05 09:41:00,
2014-02-05 03:57:00,39.2,35.0,30.20,NNE,28,12.0,19.0,85,0.00,,,0.00,weatherlink.com 1.10,2014-02-05 09:57:00,
2014-02-05 04:14:00,38.6,35.0,30.21,NNE,26,14.0,17.0,86,0.00,,,0.00,weatherlink.com 1.10,2014-02-05 10:14:00,
2014-02-05 04:30:00,38.2,35.0,30.21,North,5,10.0,18.0,88,0.00,,,0.00,weatherlink.com 1.10,2014-02-05 10:30:00,
2014-02-05 04:47:00,37.8,35.0,30.21,NNE,22,14.0,20.0,88,0.00,,,0.00,weatherlink.com 1.10,2014-02-05 10:47:00,
2014-02-05 05:03:00,37.5,34.0,30.25,NNE,13,9.0,13.0,88,0.00,,,0.00,weatherlink.com 1.10,2014-02-05 11:03:00,
2014-02-05 05:19:00,37.7,35.0,30.26,NNE,31,11.0,14.0,89,0.00,,,0.00,weatherlink.com 1.10,2014-02-05 11:19:00,
2014-02-05 05:36:00,38.0,35.0,30.29,North,9,5.0,16.0,88,0.00,,,0.00,weatherlink.com 1.10,2014-02-05 11:36:00,
2014-02-05 05:53:00,38.3,34.0,30.30,North,5,3.0,12.0,86,0.00,,,0.00,weatherlink.com 1.10,2014-02-05 11:53:00,
2014-02-05 06:09:00,38.5,35.0,30.32,NNE,12,7.0,13.0,86,0.00,,,0.00,weatherlink.com 1.10,2014-02-05 12:09:00,
2014-02-05 06:25:00,38.7,35.0,30.32,North,5,4.0,12.0,85,0.00,,,0.00,weatherlink.com 1.10,2014-02-05 12:25:00,
2014-02-05 06:41:00,38.7,34.0,30.34,NNE,21,8.0,14.0,84,0.00,,,0.00,weatherlink.com 1.10,2014-02-05 12:41:00,
2014-02-05 06:58:00,38.2,33.0,30.34,North,360,12.0,15.0,82,0.00,,,0.00,weatherlink.com 1.10,2014-02-05 12:58:00,
2014-02-05 07:14:00,38.0,33.0,30.36,NNE,29,8.0,16.0,83,0.00,,,0.00,weatherlink.com 1.10,2014-02-05 13:14:00,
2014-02-05 07:30:00,37.9,33.0,30.37,North,5,13.0,15.0,83,0.00,,,0.00,weatherlink.com 1.10,2014-02-05 13:30:00,
2014-02-05 07:47:00,37.5,33.0,30.38,NNW,344,9.0,16.0,83,0.00,,,0.00,weatherlink.com 1.10,2014-02-05 13:47:00,
2014-02-05 08:03:00,36.5,31.0,30.40,NE,34,12.0,18.0,81,0.00,,,0.00,weatherlink.com 1.10,2014-02-05 14:03:00,
2014-02-05 08:19:00,35.8,31.0,30.41,NNE,30,12.0,19.0,82,0.00,,,0.00,weatherlink.com 1.10,2014-02-05 14:19:00,
2014-02-05 08:36:00,35.8,31.0,30.42,NE,42,13.0,19.0,82,0.00,,,0.00,weatherlink.com 1.10,2014-02-05 14:36:00,
2014-02-05 08:52:00,36.4,31.0,30.43,NNE,22,11.0,17.0,81,0.00,,,0.00,weatherlink.com 1.10,2014-02-05 14:52:00,
2014-02-05 09:08:00,37.1,32.0,30.45,NNE,28,9.0,19.0,80,0.00,,,0.00,weatherlink.com 1.10,2014-02-05 15:08:00,
2014-02-05 09:25:00,37.7,31.0,30.46,NNE,18,9.0,17.0,78,0.00,,,0.00,weatherlink.com 1.10,2014-02-05 15:25:00,
2014-02-05 09:41:00,38.1,32.0,30.46,NE,40,13.0,20.0,78,0.00,,,0.00,weatherlink.com 1.10,2014-02-05 15:41:00,
2014-02-05 09:57:00,37.2,31.0,30.46,NNE,13,15.0,24.0,77,0.00,,,0.00,weatherlink.com 1.10,2014-02-05 15:57:00,
2014-02-05 10:14:00,38.0,31.0,30.46,NNE,19,14.0,21.0,76,0.00,,,0.00,weatherlink.com 1.10,2014-02-05 16:14:00,
2014-02-05 10:30:00,39.1,32.0,30.47,NE,42,14.0,20.0,74,0.00,,,0.00,weatherlink.com 1.10,2014-02-05 16:30:00,
2014-02-05 10:47:00,39.1,31.0,30.47,NE,34,18.0,21.0,72,0.00,,,0.00,weatherlink.com 1.10,2014-02-05 16:47:00,
2014-02-05 11:20:00,39.7,30.0,30.46,NE,42,11.0,20.0,69,0.00,,,0.00,weatherlink.com 1.10,2014-02-05 17:20:00,
2014-02-05 11:37:00,39.4,30.0,30.46,North,11,11.0,21.0,68,0.00,,,0.00,weatherlink.com 1.10,2014-02-05 17:37:00,
2014-02-05 11:53:00,40.7,30.0,30.46,NNE,21,16.0,21.0,65,0.00,,,0.00,weatherlink.com 1.10,2014-02-05 17:53:00,
2014-02-05 12:09:00,41.4,30.0,30.45,North,11,9.0,25.0,64,0.00,,,0.00,weatherlink.com 1.10,2014-02-05 18:09:00,
2014-02-05 12:26:00,40.8,30.0,30.44,NNE,24,16.0,22.0,65,0.00,,,0.00,weatherlink.com 1.10,2014-02-05 18:26:00,
2014-02-05 12:42:00,41.0,29.0,30.42,NNE,19,18.0,20.0,62,0.00,,,0.00,weatherlink.com 1.10,2014-02-05 18:42:00,
2014-02-05 12:59:00,41.5,30.0,30.41,NE,42,19.0,23.0,63,0.00,,,0.00,weatherlink.com 1.10,2014-02-05 18:59:00,
2014-02-05 13:15:00,40.5,28.0,30.40,NNE,15,18.0,24.0,62,0.00,,,0.00,weatherlink.com 1.10,2014-02-05 19:15:00,
2014-02-05 13:31:00,41.6,29.0,30.39,NNE,23,18.0,22.0,61,0.00,,,0.00,weatherlink.com 1.10,2014-02-05 19:31:00,
2014-02-05 13:48:00,42.2,29.0,30.38,NNE,19,18.0,23.0,59,0.00,,,0.00,weatherlink.com 1.10,2014-02-05 19:48:00,
2014-02-05 14:04:00,42.7,28.0,30.38,NE,38,14.0,27.0,56,0.00,,,0.00,weatherlink.com 1.10,2014-02-05 20:04:00,
2014-02-05 14:20:00,44.1,29.0,30.37,NE,52,15.0,27.0,56,0.00,,,0.00,weatherlink.com 1.10,2014-02-05 20:20:00,
2014-02-05 14:36:00,42.8,28.0,30.37,NNE,33,12.0,25.0,56,0.00,,,0.00,weatherlink.com 1.10,2014-02-05 20:36:00,
2014-02-05 14:55:00,42.3,27.0,30.36,NNE,22,16.0,26.0,54,0.00,,,0.00,weatherlink.com 1.10,2014-02-05 20:55:00,
2014-02-05 15:30:00,41.7,27.0,30.36,NE,46,19.0,25.0,55,0.00,,,0.00,weatherlink.com 1.10,2014-02-05 21:30:00,
2014-02-05 15:46:00,41.2,27.0,30.36,NE,38,13.0,25.0,57,0.00,,,0.00,weatherlink.com 1.10,2014-02-05 21:46:00,
2014-02-05 16:03:00,41.4,26.0,30.37,NE,42,20.0,27.0,54,0.00,,,0.00,weatherlink.com 1.10,2014-02-05 22:03:00,
2014-02-05 16:19:00,41.4,27.0,30.37,NE,42,21.0,22.0,56,0.00,,,0.00,weatherlink.com 1.10,2014-02-05 22:19:00,
2014-02-05 16:36:00,40.4,25.0,30.37,NNE,33,11.0,27.0,55,0.00,,,0.00,weatherlink.com 1.10,2014-02-05 22:36:00,
2014-02-05 16:52:00,38.4,24.0,30.38,NNE,33,18.0,24.0,57,0.00,,,0.00,weatherlink.com 1.10,2014-02-05 22:52:00,
2014-02-05 17:08:00,37.2,24.0,30.38,NE,45,16.0,22.0,59,0.00,,,0.00,weatherlink.com 1.10,2014-02-05 23:08:00,
2014-02-05 17:25:00,36.3,24.0,30.38,NNE,30,15.0,22.0,60,0.00,,,0.00,weatherlink.com 1.10,2014-02-05 23:25:00,
2014-02-05 17:41:00,35.6,24.0,30.38,NNE,14,15.0,24.0,62,0.00,,,0.00,weatherlink.com 1.10,2014-02-05 23:41:00,
2014-02-05 17:58:00,34.5,23.0,30.38,NNE,25,14.0,23.0,63,0.00,,,0.00,weatherlink.com 1.10,2014-02-05 23:58:00,
2014-02-05 18:14:00,33.7,22.0,30.38,NNE,30,13.0,22.0,63,0.00,,,0.00,weatherlink.com 1.10,2014-02-06 00:14:00,
2014-02-05 18:32:00,33.1,22.0,30.39,NNE,31,15.0,22.0,64,0.00,,,0.00,weatherlink.com 1.10,2014-02-06 00:32:00,
2014-02-05 18:48:00,32.4,22.0,30.40,NNE,28,16.0,20.0,65,0.00,,,0.00,weatherlink.com 1.10,2014-02-06 00:48:00,
2014-02-05 19:08:00,31.8,22.0,30.41,NNE,14,13.0,20.0,66,0.00,,,0.00,weatherlink.com 1.10,2014-02-06 01:08:00,
2014-02-05 19:24:00,31.5,21.0,30.41,NE,41,15.0,19.0,66,0.00,,,0.00,weatherlink.com 1.10,2014-02-06 01:24:00,
2014-02-05 19:40:00,31.2,22.0,30.41,NNE,18,9.0,17.0,67,0.00,,,0.00,weatherlink.com 1.10,2014-02-06 01:40:00,
2014-02-05 19:57:00,30.8,21.0,30.42,North,5,13.0,18.0,68,0.00,,,0.00,weatherlink.com 1.10,2014-02-06 01:57:00,
2014-02-05 20:14:00,30.4,21.0,30.42,NNE,12,17.0,18.0,68,0.00,,,0.00,weatherlink.com 1.10,2014-02-06 02:14:00,
2014-02-05 20:30:00,30.1,21.0,30.43,NNE,14,11.0,21.0,69,0.00,,,0.00,weatherlink.com 1.10,2014-02-06 02:30:00,
2014-02-05 20:47:00,29.9,21.0,30.44,NNE,24,19.0,22.0,69,0.00,,,0.00,weatherlink.com 1.10,2014-02-06 02:47:00,
2014-02-05 21:03:00,29.6,21.0,30.46,NNE,15,7.0,19.0,69,0.00,,,0.00,weatherlink.com 1.10,2014-02-06 03:03:00,
2014-02-05 21:19:00,29.4,21.0,30.47,North,350,11.0,19.0,70,0.00,,,0.00,weatherlink.com 1.10,2014-02-06 03:19:00,
2014-02-05 21:36:00,29.3,21.0,30.47,NNE,27,9.0,15.0,70,0.00,,,0.00,weatherlink.com 1.10,2014-02-06 03:36:00,
2014-02-05 21:52:00,29.7,21.0,30.48,NNE,18,7.0,17.0,69,0.00,,,0.00,weatherlink.com 1.10,2014-02-06 03:52:00,
2014-02-05 22:09:00,29.7,21.0,30.48,North,355,10.0,19.0,69,0.00,,,0.00,weatherlink.com 1.10,2014-02-06 04:09:00,
2014-02-05 22:25:00,29.7,20.0,30.48,NNE,26,17.0,19.0,68,0.00,,,0.00,weatherlink.com 1.10,2014-02-06 04:25:00,
2014-02-05 22:41:00,29.6,21.0,30.48,NNE,29,8.0,16.0,69,0.00,,,0.00,weatherlink.com 1.10,2014-02-06 04:41:00,
2014-02-05 22:58:00,29.5,21.0,30.49,NNE,16,7.0,16.0,69,0.00,,,0.00,weatherlink.com 1.10,2014-02-06 04:58:00,
2014-02-05 23:14:00,29.4,20.0,30.49,NNE,28,8.0,17.0,69,0.00,,,0.00,weatherlink.com 1.10,2014-02-06 05:14:00,
2014-02-05 23:31:00,29.3,21.0,30.50,NNE,23,12.0,16.0,70,0.00,,,0.00,weatherlink.com 1.10,2014-02-06 05:31:00,
2014-02-05 23:47:00,29.2,20.0,30.49,NNW,348,13.0,17.0,69,0.00,,,0.00,weatherlink.com 1.10,2014-02-06 05:47:00,